London-Corbin, KY

5:33 PM EDT on April 25, 2017 (GMT -0400)
London-Corbin / McKee

Weather History for KLOZ - November, 2012

Change the Weather History Date:

Saturday, November 10, 2012

  Actual Average Record
Temperature  
Mean Temperature 53 °F 50 °F  
Max Temperature 71 °F 61 °F 78 °F (2006)
Min Temperature 35 °F 38 °F 17 °F (1957)
Degree Days  
Heating Degree Days 12 16  
Month to date heating degree days 210 142  
Since 1 July heating degree days 609 448  
Cooling Degree Days 0 0  
Month to date cooling degree days 0 0  
Year to date cooling degree days 1226 1188  
Growing Degree Days 4 (Base 50)    
Moisture  
Dew Point 34 °F    
Average Humidity 57    
Maximum Humidity 89    
Minimum Humidity 25    
Precipitation  
Precipitation 0.00 in 0.11 in 1.18 in (1987)
Month to date precipitation 0.26 1.13  
Year to date precipitation 39.47  
Sea Level Pressure  
Sea Level Pressure 30.26 in    
Wind  
Wind Speed 2 mph (South)    
Max Wind Speed 12 mph    
Max Gust Speed 16 mph    
Visibility 10 miles    
Events      
T = Trace of Precipitation, MM = Missing Value Source: NWS Daily Summary

Daily Weather History Graph

Daily Weather History Graph

Search for Another Location

Airport or City:

Trip Planner

Search our weather history database for the weather conditions in past years. The results will help you decide how hot, cold, wet, or windy it might be!

Date:

Astronomy

Nov. 10, 2012 Rise Set
Actual Time 7:10 AM EST 5:29 PM EST
Civil Twilight 6:42 AM EST 5:57 PM EST
Nautical Twilight 6:11 AM EST 6:28 PM EST
Astronomical Twilight 5:41 AM EST 6:59 PM EST
Moon 3:18 AM EST (11/10) 3:12 PM EST (11/10)
Length of Visible Light 11h 14m
Length of Day
10h 19m
Waning Crescent, 14% of the Moon is Illuminated
Nov 10
Waning Crescent
Nov 13
New
Nov 20
First Quarter
Nov 28
Full
Dec 6
Last Quarter

Hourly Weather History & Observations

Time (EST) Temp. Dew Point Humidity Pressure Visibility Wind Dir Wind Speed Gust Speed Precip Events Conditions
12:53 AM 41.0 °F 35.1 °F 79% 30.22 in 10.0 mi Calm Calm - N/A   Clear
1:53 AM 39.9 °F 34.0 °F 79% 30.22 in 10.0 mi Calm Calm - N/A   Clear
2:53 AM 39.9 °F 34.0 °F 79% 30.24 in 10.0 mi Calm Calm - N/A   Clear
3:53 AM 37.9 °F 33.1 °F 83% 30.24 in 10.0 mi Calm Calm - N/A   Clear
4:53 AM 37.0 °F 33.1 °F 86% 30.26 in 10.0 mi Calm Calm - N/A   Clear
5:53 AM 37.0 °F 33.1 °F 86% 30.29 in 10.0 mi Calm Calm - N/A   Clear
7:53 AM 37.9 °F 33.1 °F 83% 30.33 in 10.0 mi Calm Calm - N/A   Clear
8:53 AM 46.9 °F 37.9 °F 71% 30.34 in 10.0 mi Calm Calm - N/A   Clear
9:53 AM 54.0 °F 37.9 °F 55% 30.33 in 10.0 mi South 3.5 mph - N/A   Clear
10:53 AM 61.0 °F 37.0 °F 41% 30.32 in 10.0 mi SSW 8.1 mph - N/A   Clear
11:53 AM 64.0 °F 35.1 °F 34% 30.29 in 10.0 mi South 9.2 mph - N/A   Partly Cloudy
12:53 PM 68.0 °F 33.1 °F 27% 30.26 in 10.0 mi SW 5.8 mph - N/A   Clear
1:53 PM 69.1 °F 33.1 °F 26% 30.24 in 10.0 mi South 5.8 mph - N/A   Clear
2:53 PM 70.0 °F 32.0 °F 25% 30.22 in 10.0 mi South 5.8 mph - N/A   Clear
3:53 PM 71.1 °F 34.0 °F 26% 30.22 in 10.0 mi SSE 5.8 mph - N/A   Clear
4:53 PM 69.1 °F 35.1 °F 29% 30.21 in 10.0 mi South 3.5 mph - N/A   Clear
5:53 PM 62.1 °F 36.0 °F 38% 30.23 in 10.0 mi Calm Calm - N/A   Clear
6:53 PM 60.1 °F 35.1 °F 39% 30.26 in 10.0 mi Calm Calm - N/A   Clear
7:53 PM 59.0 °F 35.1 °F 41% 30.27 in 8.0 mi South 3.5 mph - N/A   Clear
8:53 PM 55.9 °F 34.0 °F 44% 30.26 in 10.0 mi South 4.6 mph - N/A   Clear
9:53 PM 55.0 °F 34.0 °F 45% 30.27 in 10.0 mi South 3.5 mph - N/A   Clear
11:53 PM 46.9 °F 34.0 °F 61% 30.27 in 10.0 mi Calm Calm - N/A   Clear